Location: Falniów
(50.3639°N, 19.9642°E)
Time: 12:57:13
(UTC+00:00)

Cosmos 2082 Rocket - Pass Details

Date: 25 April 2026
Orbit: 831 x 853 km, 71.0° (Epoch: 19 May)

Event Time Altitude Azimuth Distance (km) Brightness Sun altitude
Exits shadow 22:18:34 36° 99° (E) 1,330 3.0 -26.1°
Drops below altitude 10° 22:23:24 10° 43° (NE) 2,492 5.2 -26.1°
Sets 22:26:01 0° 35° (NE) 3,432 6.1 -26.1°
